Wind_Speed
24 24 24 25 25 25 23 22 22 22 23 24 24 24 24 24 24 25 24 24 23 23 23 23 23 23 22 22 22 22 22 22 21 21 20 19 19 18 17 17 17 16 15 15 14 14 13 12 11
26 26 26 27 27 26 24 24 24 25 26 26 26 26 26 26 26 26 26 25 25 25 25 25 25 25 25 25 24 24 24 24 24 23 23 22 21 20 20 19 18 18 17 17 16 16 15 14 13
27 28 28 29 28 27 26 26 26 27 27 28 28 28 28 28 28 28 27 28 28 28 28 28 27 27 27 27 27 27 27 27 26 26 25 25 24 23 23 22 21 20 19 19 19 18 17 16 15
29 29 30 30 29 28 28 28 28 29 29 29 30 30 30 30 30 30 30 30 30 30 30 30 30 30 30 30 29 29 29 29 29 28 28 27 27 26 25 25 24 23 22 21 20 20 19 19 17
30 31 32 31 30 30 30 30 30 30 31 31 32 32 32 32 32 32 32 32 32 32 32 32 32 32 32 32 32 32 32 32 31 31 30 30 29 28 28 27 27 26 25 24 23 22 21 21 20
30 32 33 32 32 31 31 31 32 32 32 33 33 34 34 34 34 34 34 34 34 34 34 34 35 35 34 35 35 34 34 34 34 33 33 32 32 31 30 29 29 28 27 26 26 25 24 23 22
29 31 32 32 32 33 33 33 33 33 34 35 35 35 35 36 36 37 37 37 37 37 37 38 38 37 37 37 37 37 37 36 36 35 35 34 33 33 33 32 31 30 29 28 28 27 27 26 25
28 30 30 31 32 33 33 34 34 34 35 35 37 37 37 37 38 38 39 39 39 39 40 40 40 39 39 39 39 39 39 39 38 37 37 36 35 35 35 35 34 33 32 31 31 30 29 28 27
28 29 30 31 32 33 34 34 34 35 35 36 37 38 39 39 40 41 41 42 42 42 42 42 42 42 42 42 42 42 42 41 40 39 39 38 38 37 37 37 36 36 35 34 33 32 31 31 30
28 29 30 31 32 33 34 35 35 35 35 36 38 39 40 41 43 43 43 44 44 43 43 43 43 44 44 44 44 44 44 43 42 41 40 40 40 39 39 38 37 37 37 36 35 34 33 33 32
28 29 30 31 32 33 34 34 35 35 36 38 39 39 41 43 44 45 45 45 45 45 45 45 45 46 46 46 47 46 46 45 44 43 42 42 41 41 40 40 39 38 38 38 37 36 36 35 34
27 29 30 31 32 32 33 33 34 35 37 38 40 41 42 43 44 45 46 46 46 46 46 47 48 48 48 48 48 48 48 47 46 45 44 44 43 43 42 41 40 40 39 38 38 38 38 37 35
27 28 29 30 30 31 32 33 34 34 37 38 40 42 43 44 45 46 46 47 48 48 48 49 50 50 49 49 49 49 49 49 48 48 47 46 45 45 44 44 42 42 41 40 40 40 40 39 38
27 28 29 30 31 32 33 34 35 35 37 38 39 41 43 44 45 45 47 48 49 49 50 50 50 51 50 50 49 51 51 50 50 50 49 48 48 47 47 46 45 43 43 42 42 42 42 41 40
27 28 29 31 32 33 34 34 35 36 38 38 39 40 42 43 45 45 46 47 49 50 51 51 51 52 51 50 50 51 52 52 52 52 52 51 51 50 49 48 47 46 45 45 45 44 44 43 42
27 28 29 30 32 33 35 34 35 37 39 39 39 41 42 42 43 44 44 45 48 49 50 51 52 52 52 52 52 52 53 54 54 54 54 54 53 52 51 50 49 49 47 47 46 46 46 45 44
28 28 29 30 32 33 35 34 35 37 39 39 40 41 41 41 41 42 42 43 44 46 48 49 51 52 52 52 52 53 53 55 56 56 56 56 55 54 53 53 52 51 49 49 48 48 47 46 46
29 29 29 31 32 33 35 35 35 37 39 39 39 39 40 40 40 41 41 41 42 44 46 49 50 52 52 52 53 53 53 54 55 56 56 57 56 55 55 55 55 53 52 51 50 49 49 48 47
30 31 31 31 33 34 34 35 34 37 37 37 37 37 38 39 40 41 41 41 41 43 45 47 49 51 51 52 52 53 52 53 54 54 55 56 57 56 55 56 55 54 53 52 51 51 50 50 49
32 32 32 33 33 34 34 35 34 35 35 35 36 36 37 38 40 40 41 40 41 42 43 45 47 49 50 51 52 53 52 52 54 54 55 55 56 55 55 56 56 55 54 53 52 52 52 51 50
33 34 34 34 34 35 36 35 34 34 34 34 35 35 37 38 39 40 40 40 40 42 43 44 45 47 49 51 51 52 51 52 52 53 54 53 54 55 55 55 56 56 55 54 53 52 52 52 52
34 35 35 36 36 36 36 37 34 34 35 34 35 35 37 38 39 39 39 39 40 41 42 44 45 46 48 49 49 50 51 52 52 52 52 53 54 54 54 55 56 56 55 55 53 53 53 53 52
34 35 36 37 37 37 36 38 35 35 35 35 36 37 37 38 39 40 40 39 39 40 42 43 44 46 48 48 48 49 50 50 51 52 52 51 52 53 53 53 53 54 54 54 54 53 53 53 52
35 36 37 38 38 38 37 38 37 36 35 36 37 38 38 39 40 40 40 41 41 40 41 42 43 44 45 46 46 47 48 48 49 49 50 50 51 52 51 52 52 53 53 53 53 53 53 53 52
36 36 37 39 39 39 38 38 37 36 35 37 38 39 39 40 41 40 40 40 40 40 40 41 42 43 44 45 45 46 47 48 48 47 48 49 50 50 51 52 52 52 51 52 51 52 52 51 51
36 35 36 38 40 40 39 38 37 35 36 38 39 39 40 40 40 40 39 39 38 39 39 40 41 42 44 44 43 44 47 48 48 46 46 48 49 50 50 51 52 52 51 51 50 50 50 50 50
37 36 36 38 40 41 40 39 38 35 36 38 39 40 41 41 40 39 37 38 39 38 39 38 39 41 40 41 40 41 43 45 45 45 44 46 48 48 49 50 50 51 51 50 50 49 48 48 49
37 37 37 38 40 42 41 40 39 36 34 37 39 40 40 40 39 37 37 37 38 38 37 36 38 40 39 39 40 41 43 43 43 43 43 43 44 45 46 47 48 49 49 49 48 48 47 47 48
38 38 38 39 40 41 42 40 38 35 35 36 38 39 39 39 37 36 35 36 37 37 37 37 37 38 38 39 39 40 41 41 41 41 41 42 44 44 45 47 47 47 48 48 48 47 46 45 46
38 38 38 38 39 40 42 40 36 36 37 37 38 38 39 38 37 36 36 36 37 37 38 36 36 36 37 38 39 40 39 38 38 39 40 40 41 43 44 45 46 47 47 47 47 45 44 43 43
Wind_Direction
249 249 249 250 250 250 250 250 249 248 247 246 247 247 247 247 247 248 249 249 248 248 249 249 248 247 246 245 245 244 243 243 244 244 245 245 245 245 244 244 245 244 245 247 250 252 255 259 264
250 250 250 250 252 252 252 252 251 249 249 248 248 249 249 248 249 250 250 249 248 248 248 249 249 249 248 247 246 245 245 245 245 245 246 246 246 247 247 246 247 248 248 249 252 255 256 259 263
251 251 251 251 253 254 254 252 252 251 250 249 249 250 251 251 251 251 251 250 249 248 248 248 249 249 249 248 248 248 247 247 246 246 246 247 246 247 248 248 249 250 251 251 253 255 256 258 261
252 253 253 253 253 254 255 254 252 252 252 252 252 252 252 253 252 252 251 251 250 249 249 249 249 249 249 248 248 249 249 249 248 247 247 247 247 247 248 249 249 251 252 252 253 255 256 258 259
252 253 254 255 255 255 255 255 254 254 254 255 254 254 254 254 254 253 253 252 252 251 250 249 249 249 249 249 249 249 250 250 250 249 248 248 248 248 249 250 250 251 252 253 254 254 257 258 258
254 254 255 255 256 256 256 256 256 256 256 257 256 256 256 255 255 255 254 254 253 252 251 251 250 249 249 250 250 250 250 250 250 250 249 249 249 249 249 250 251 252 252 252 253 254 256 258 260
256 255 256 257 257 258 258 257 257 257 257 257 258 257 257 256 256 255 255 255 255 254 252 251 250 250 250 251 251 251 250 250 250 251 250 249 249 249 249 249 251 251 252 253 253 254 255 257 259
257 257 257 257 258 258 258 258 257 257 258 259 259 259 258 258 258 258 257 256 256 255 254 253 251 251 251 251 251 251 251 251 250 250 251 250 249 249 249 250 250 251 252 253 254 254 254 256 258
258 258 259 259 259 260 260 260 259 259 259 259 260 260 260 259 259 259 259 258 256 255 254 253 252 251 250 250 251 251 251 251 250 250 251 250 250 250 250 250 251 251 251 252 254 255 255 256 256
261 261 261 261 262 263 263 262 261 260 260 260 261 262 262 261 261 260 260 259 258 256 254 253 252 251 250 250 250 251 251 251 250 250 250 250 249 250 250 250 250 251 251 251 252 254 256 256 256
264 263 263 263 264 264 263 263 263 263 263 263 264 264 264 263 263 262 261 260 259 257 255 253 252 251 250 249 249 250 251 251 250 250 249 249 249 249 249 250 250 250 251 251 252 252 255 257 258
268 267 266 266 265 264 264 264 264 264 264 265 266 267 267 266 265 264 261 259 258 257 256 254 253 251 250 249 249 249 249 250 250 249 249 248 248 248 249 250 250 250 251 252 252 252 254 256 258
272 271 269 267 266 266 266 267 267 266 266 268 268 268 269 269 267 264 261 259 258 256 255 255 254 251 251 250 249 248 249 248 249 249 249 249 248 248 249 249 250 251 251 251 252 252 253 254 256
275 272 270 269 268 269 270 270 269 269 270 271 272 273 272 271 268 265 262 260 259 258 256 254 253 250 250 250 249 249 248 248 248 248 248 248 248 248 248 249 250 251 251 251 252 253 253 254 256
278 274 272 271 271 272 272 272 271 272 272 273 275 275 274 273 270 268 265 263 260 257 256 253 251 249 249 249 249 249 247 248 247 247 248 248 248 248 248 249 250 251 252 252 252 253 254 254 255
281 278 275 274 274 274 273 273 273 274 274 275 275 275 274 275 273 271 269 266 261 257 255 252 250 249 249 250 249 249 248 248 248 248 248 248 248 248 248 250 250 250 251 252 252 252 254 254 254
281 280 278 277 277 277 275 274 274 275 276 276 276 275 275 275 275 274 273 269 264 259 254 251 250 249 249 250 250 249 251 250 249 249 248 248 249 249 248 249 250 251 251 252 252 252 253 254 254
283 281 281 281 280 280 278 276 275 278 278 278 277 276 275 276 276 276 274 271 266 262 257 252 250 250 250 250 250 250 251 250 249 249 248 248 248 248 248 249 250 250 251 252 252 252 252 252 253
285 284 284 284 283 282 281 278 277 279 281 280 279 278 277 277 277 277 275 272 267 263 257 253 251 250 251 251 250 250 251 250 250 248 248 247 248 248 249 249 248 249 250 251 251 251 251 251 252
285 285 285 284 283 283 282 281 278 279 282 282 281 279 279 278 278 278 276 272 269 265 258 253 251 251 252 253 252 251 251 250 249 249 248 247 248 248 248 249 249 248 248 249 250 251 250 250 251
285 286 286 286 285 284 284 282 278 278 280 280 280 280 280 280 279 277 277 275 271 266 262 258 254 253 253 253 253 252 251 250 249 249 248 248 248 248 248 248 248 247 247 247 248 249 249 250 250
286 286 286 286 286 285 286 287 282 280 281 280 281 282 283 281 280 279 278 276 274 269 263 258 255 255 255 253 254 254 253 253 251 250 249 249 249 249 248 248 248 247 246 246 247 248 249 249 249
286 285 286 286 286 285 286 287 285 282 282 281 282 283 284 283 283 281 278 278 277 273 265 259 257 256 255 255 255 255 254 253 252 250 250 250 249 247 248 248 248 247 245 245 246 247 248 248 248
286 286 286 285 285 285 287 287 287 285 284 283 283 284 286 285 285 284 280 278 278 275 266 260 259 258 256 255 254 255 254 253 252 251 250 250 248 246 247 246 246 246 246 245 246 247 247 247 247
287 287 288 287 286 286 287 286 288 289 286 283 283 285 287 286 286 286 283 280 278 275 268 262 261 260 257 256 255 256 254 253 251 251 251 249 247 246 246 247 246 245 245 245 246 247 246 246 247
286 288 288 288 289 289 288 288 289 288 287 285 284 285 287 288 288 288 284 281 279 277 271 264 262 261 257 256 257 256 253 252 251 252 251 249 248 246 246 246 245 243 243 244 245 246 246 246 246
286 287 288 288 288 289 289 289 288 288 289 287 286 286 287 288 289 287 284 282 280 277 271 266 264 260 256 255 256 255 253 251 251 251 251 250 247 246 246 245 244 242 241 243 245 246 246 246 246
285 286 288 288 289 290 290 290 291 291 291 289 288 288 288 287 287 286 284 282 279 274 269 268 265 258 255 256 256 255 253 250 249 250 251 249 248 248 246 244 242 242 242 242 244 245 247 247 247
284 286 286 287 288 289 290 290 291 292 291 290 289 289 288 287 287 285 283 281 280 275 270 272 265 258 256 257 257 256 254 251 250 250 250 250 249 247 246 244 242 241 241 242 243 244 245 246 246
283 285 285 285 287 288 289 290 291 291 291 291 290 289 289 287 286 284 283 281 280 277 272 271 264 259 258 257 256 255 254 250 249 250 250 250 249 247 246 244 242 240 240 240 242 242 243 245 245
Height
5820 5821 5822 5823 5824 5825 5827 5829 5830 5830 5831 5831 5832 5833 5834 5835 5837 5839 5839 5839 5839 5841 5842 5843 5844 5845 5846 5847 5848 5849 5850 5851 5852 5853 5854 5854 5855 5855 5856 5856 5856 5857 5857 5857 5857 5857 5857 5857 5857
5815 5816 5817 5818 5818 5820 5822 5824 5825 5825 5825 5826 5827 5828 5829 5830 5831 5832 5833 5834 5835 5836 5837 5838 5839 5840 5842 5843 5844 5845 5846 5847 5848 5849 5850 5851 5852 5852 5853 5853 5854 5854 5854 5855 5854 5854 5854 5854 5854
5809 5810 5812 5812 5813 5815 5817 5818 5819 5819 5819 5820 5821 5822 5823 5825 5826 5826 5827 5828 5830 5831 5832 5833 5834 5836 5837 5838 5839 5840 5841 5842 5844 5845 5846 5847 5848 5849 5849 5850 5850 5851 5851 5851 5851 5851 5851 5851 5851
5803 5804 5805 5807 5808 5810 5810 5812 5812 5813 5814 5815 5815 5816 5818 5819 5820 5821 5822 5823 5824 5825 5826 5827 5829 5830 5831 5832 5834 5835 5836 5837 5839 5840 5841 5842 5843 5844 5845 5846 5846 5847 5847 5848 5848 5848 5848 5848 5848
5797 5797 5799 5799 5801 5803 5804 5805 5806 5806 5807 5808 5809 5810 5811 5813 5813 5814 5815 5816 5817 5819 5820 5821 5822 5824 5825 5826 5828 5829 5831 5832 5833 5834 5836 5837 5838 5839 5840 5841 5841 5842 5843 5844 5844 5844 5844 5844 5844
5790 5791 5792 5793 5795 5796 5797 5798 5799 5799 5800 5801 5801 5803 5804 5805 5806 5807 5808 5809 5810 5812 5813 5814 5816 5817 5818 5820 5821 5823 5824 5826 5827 5828 5829 5831 5832 5834 5835 5836 5836 5837 5838 5839 5839 5840 5840 5840 5840
5784 5784 5785 5786 5788 5789 5790 5790 5791 5792 5792 5793 5793 5795 5796 5797 5798 5799 5800 5802 5803 5804 5805 5806 5808 5810 5811 5812 5814 5815 5817 5818 5820 5821 5823 5825 5826 5827 5829 5830 5831 5831 5832 5833 5834 5834 5835 5835 5836
5776 5777 5778 5779 5780 5781 5782 5782 5783 5784 5785 5785 5785 5787 5788 5789 5790 5790 5792 5793 5794 5795 5796 5798 5799 5801 5803 5804 5806 5807 5809 5811 5812 5814 5816 5817 5819 5820 5822 5823 5824 5826 5827 5828 5828 5829 5829 5830 5830
5769 5771 5771 5772 5773 5773 5774 5774 5775 5775 5776 5776 5776 5777 5779 5779 5780 5781 5782 5783 5784 5786 5787 5788 5790 5792 5793 5795 5797 5799 5800 5802 5804 5806 5808 5810 5811 5813 5814 5816 5817 5819 5820 5821 5822 5823 5823 5824 5825
5762 5763 5764 5765 5764 5765 5765 5765 5766 5766 5767 5767 5767 5768 5768 5769 5769 5770 5771 5772 5773 5775 5776 5778 5779 5781 5783 5785 5787 5789 5791 5793 5795 5797 5799 5801 5803 5805 5807 5808 5810 5811 5813 5814 5815 5816 5817 5818 5818
5755 5756 5756 5756 5756 5756 5756 5756 5756 5757 5758 5757 5758 5758 5758 5758 5758 5759 5760 5760 5761 5763 5764 5766 5768 5770 5772 5775 5777 5779 5781 5783 5785 5788 5790 5792 5795 5797 5799 5800 5802 5803 5805 5806 5808 5809 5810 5811 5812
5747 5748 5747 5747 5747 5747 5747 5747 5747 5748 5748 5747 5747 5747 5747 5746 5746 5746 5747 5748 5749 5750 5752 5754 5756 5758 5761 5763 5766 5768 5770 5773 5776 5778 5780 5783 5786 5788 5790 5792 5793 5795 5797 5798 5800 5802 5803 5804 5805
5739 5739 5739 5738 5738 5738 5738 5738 5738 5738 5738 5737 5736 5735 5734 5734 5734 5733 5733 5735 5736 5738 5740 5741 5742 5745 5748 5751 5754 5756 5758 5761 5764 5767 5770 5773 5775 5778 5781 5783 5785 5786 5788 5790 5792 5794 5795 5796 5798
5732 5731 5730 5730 5729 5729 5729 5728 5728 5728 5727 5726 5725 5724 5722 5721 5720 5719 5719 5721 5722 5723 5725 5727 5729 5732 5735 5738 5741 5743 5745 5749 5752 5756 5759 5762 5764 5767 5770 5773 5775 5777 5779 5782 5783 5785 5787 5788 5790
5723 5723 5722 5721 5720 5720 5720 5719 5718 5717 5716 5715 5714 5712 5710 5708 5706 5705 5705 5705 5706 5707 5709 5712 5715 5718 5722 5725 5728 5730 5732 5735 5739 5743 5747 5750 5752 5756 5758 5761 5765 5767 5769 5772 5774 5776 5777 5779 5781
5716 5715 5714 5713 5712 5710 5711 5710 5709 5706 5705 5704 5703 5700 5698 5696 5693 5691 5690 5690 5690 5691 5693 5697 5700 5704 5708 5712 5715 5717 5718 5722 5726 5730 5733 5737 5740 5743 5747 5750 5754 5756 5759 5761 5763 5766 5768 5769 5771
5709 5707 5706 5705 5703 5701 5700 5700 5699 5696 5694 5693 5691 5689 5686 5684 5682 5679 5677 5676 5675 5676 5678 5681 5686 5690 5693 5697 5701 5703 5705 5709 5712 5716 5719 5723 5727 5730 5734 5738 5742 5744 5747 5750 5752 5755 5757 5759 5761
5701 5699 5698 5696 5694 5692 5690 5689 5689 5685 5683 5681 5679 5677 5675 5673 5670 5667 5665 5664 5663 5663 5665 5668 5671 5675 5679 5683 5686 5689 5691 5694 5698 5701 5705 5708 5712 5716 5720 5724 5728 5731 5734 5737 5740 5743 5746 5748 5750
5692 5691 5689 5688 5684 5682 5680 5679 5678 5675 5672 5670 5668 5666 5663 5661 5659 5656 5654 5652 5651 5651 5653 5655 5658 5662 5665 5669 5673 5676 5677 5680 5684 5687 5690 5694 5698 5702 5706 5710 5714 5718 5721 5725 5728 5730 5733 5736 5739
5684 5682 5680 5679 5675 5672 5671 5669 5667 5665 5662 5660 5657 5655 5653 5650 5647 5645 5642 5641 5640 5640 5641 5644 5646 5649 5652 5655 5659 5662 5664 5667 5670 5673 5676 5680 5684 5688 5692 5696 5700 5703 5707 5711 5715 5717 5720 5724 5727
5675 5673 5671 5669 5666 5663 5661 5660 5658 5656 5653 5650 5648 5645 5642 5639 5637 5634 5632 5630 5630 5630 5630 5632 5634 5636 5639 5641 5645 5648 5650 5653 5656 5659 5663 5667 5670 5673 5678 5681 5685 5689 5693 5697 5701 5704 5708 5711 5715
5666 5664 5662 5659 5656 5654 5652 5649 5649 5647 5643 5641 5638 5635 5632 5629 5626 5624 5622 5620 5619 5619 5619 5620 5622 5624 5626 5628 5631 5634 5637 5640 5644 5646 5650 5653 5656 5659 5663 5667 5670 5674 5679 5683 5688 5691 5695 5698 5702
5657 5655 5652 5649 5646 5644 5642 5639 5640 5637 5634 5631 5628 5625 5622 5619 5616 5613 5611 5610 5609 5608 5607 5608 5610 5612 5614 5616 5618 5622 5624 5627 5630 5633 5636 5639 5642 5646 5649 5653 5656 5660 5665 5670 5674 5678 5681 5685 5689
5648 5646 5643 5640 5637 5635 5634 5630 5628 5626 5624 5621 5618 5615 5612 5609 5606 5603 5601 5599 5598 5596 5596 5597 5599 5601 5603 5605 5607 5609 5612 5614 5617 5619 5623 5626 5629 5632 5636 5639 5643 5647 5651 5656 5660 5664 5668 5672 5676
5639 5637 5634 5630 5627 5626 5624 5620 5620 5617 5614 5611 5608 5605 5602 5599 5596 5593 5591 5589 5587 5585 5585 5586 5587 5589 5591 5593 5595 5597 5599 5602 5604 5607 5610 5613 5616 5620 5623 5626 5630 5634 5638 5643 5647 5651 5655 5659 5663
5630 5628 5625 5621 5618 5616 5613 5611 5611 5608 5604 5600 5597 5594 5591 5588 5586 5583 5580 5579 5577 5575 5574 5575 5576 5578 5580 5582 5584 5585 5587 5590 5593 5595 5598 5601 5604 5607 5610 5613 5617 5621 5625 5630 5634 5638 5643 5647 5651
5621 5619 5616 5612 5607 5605 5603 5602 5602 5599 5595 5590 5587 5584 5581 5578 5576 5573 5571 5569 5567 5565 5564 5565 5565 5567 5569 5571 5573 5574 5575 5578 5581 5583 5586 5589 5591 5594 5597 5600 5604 5608 5613 5617 5621 5626 5631 5635 5640
5611 5609 5606 5602 5597 5594 5593 5592 5592 5589 5585 5581 5577 5574 5571 5568 5566 5564 5561 5559 5557 5555 5555 5555 5556 5557 5559 5561 5562 5564 5565 5567 5569 5572 5575 5577 5579 5582 5585 5589 5593 5597 5601 5606 5610 5615 5620 5624 5628
5601 5599 5596 5592 5589 5585 5581 5585 5583 5579 5575 5571 5568 5565 5561 5559 5556 5554 5552 5550 5548 5547 5546 5546 5546 5547 5549 5550 5552 5553 5555 5556 5558 5561 5564 5566 5568 5571 5574 5577 5581 5585 5590 5595 5599 5604 5609 5613 5617
5591 5589 5586 5584 5580 5576 5571 5575 5574 5570 5565 5561 5558 5555 5552 5549 5546 5544 5542 5540 5538 5537 5536 5536 5536 5537 5539 5541 5542 5543 5544 5546 5548 5550 5553 5555 5558 5561 5563 5566 5570 5574 5579 5584 5589 5594 5599 5603 5607